Weather History for Flippin, AR

Change the Weather History Date:

Friday, February 14, 2014

  Actual Average Record
Temperature  
Mean Temperature 40 °F -  
Max Temperature 55 °F 50 °F 71 °F (2005)
Min Temperature 26 °F 31 °F 19 °F (2002)
Degree Days  
Heating Degree Days 24    
Moisture  
Dew Point 25 °F    
Average Humidity 64    
Maximum Humidity 80    
Minimum Humidity 47    
Precipitation  
Precipitation 0.00 in - - ()
Sea Level Pressure  
Sea Level Pressure 29.82 in    
Wind  
Wind Speed 5 mph (NW)    
Max Wind Speed 24 mph    
Max Gust Speed 37 mph    
Visibility 10 miles    
Events      
Averages and records for this station are not official NWS values.
T = Trace of Precipitation, MM = Missing Value Source: NWS Daily Summary

Daily Weather History Graph

Daily Weather History Graph

Search for Another Location

Airport:

Trip Planner

Search our weather history database for the weather conditions in past years. The results will help you decide how hot, cold, wet, or windy it might be!

Date:

Astronomy

Feb. 14, 2014 Rise Set
Actual Time 6:59 AM CST 5:50 PM CST
Civil Twilight 6:32 AM CST 6:16 PM CST
Nautical Twilight 6:02 AM CST 6:47 PM CST
Astronomical Twilight 5:32 AM CST 7:16 PM CST
Moon 5:53 PM CST (2/14) 6:27 AM CST (2/14)
Length of Visible Light 11h 44m
Length of Day
10h 51m
Full, 100% of the Moon is Illuminated
Feb 14
Full
Feb 14
Full
Feb 22
Last Quarter
Mar 1
New
Mar 8
First Quarter

Hourly Weather History & Observations

Time (CST) Temp. Windchill Dew Point Humidity Pressure Visibility Wind Dir Wind Speed Gust Speed Precip Events Conditions
12:15 AM 33.8 °F - 21.2 °F 60% 29.79 in 10.0 mi Calm Calm - N/A   Clear
12:35 AM 32.0 °F - 21.2 °F 64% 29.77 in 10.0 mi Calm Calm - N/A   Clear
12:55 AM 30.2 °F 26.7 °F 19.4 °F 64% 29.77 in 10.0 mi WSW 3.5 mph - N/A   Clear
1:15 AM 30.2 °F - 19.4 °F 64% 29.78 in 10.0 mi Calm Calm - N/A   Clear
1:35 AM 33.8 °F 30.8 °F 21.2 °F 60% 29.78 in 10.0 mi West 3.5 mph - N/A   Clear
1:55 AM 30.2 °F - 19.4 °F 64% 29.78 in 10.0 mi Calm Calm - N/A   Clear
2:15 AM 28.4 °F 24.6 °F 19.4 °F 69% 29.77 in 10.0 mi East 3.5 mph - N/A   Clear
2:35 AM 28.4 °F - 19.4 °F 69% 29.77 in 10.0 mi Calm Calm - N/A   Clear
2:55 AM 26.6 °F - 19.4 °F 74% 29.76 in 10.0 mi Calm Calm - N/A   Clear
3:15 AM 28.4 °F - 19.4 °F 69% 29.74 in 10.0 mi Calm Calm - N/A   Clear
3:35 AM 28.4 °F - 19.4 °F 69% 29.74 in 10.0 mi Calm Calm - N/A   Clear
3:55 AM 26.6 °F - 17.6 °F 69% 29.73 in 10.0 mi Calm Calm - N/A   Clear
4:15 AM 28.4 °F - 19.4 °F 69% 29.72 in 10.0 mi Calm Calm - N/A   Clear
4:35 AM 26.6 °F - 19.4 °F 74% 29.72 in 10.0 mi Calm Calm - N/A   Partly Cloudy
4:55 AM 28.4 °F - 21.2 °F 74% 29.74 in 10.0 mi Calm Calm - N/A   Mostly Cloudy
5:15 AM 28.4 °F 23.3 °F 21.2 °F 74% 29.74 in 10.0 mi NNE 4.6 mph - N/A   Mostly Cloudy
5:35 AM 30.2 °F - 21.2 °F 69% 29.74 in 10.0 mi Calm Calm - N/A   Mostly Cloudy
5:55 AM 28.4 °F - 21.2 °F 74% 29.75 in 10.0 mi Calm Calm - N/A   Scattered Clouds
6:15 AM 30.2 °F 24.3 °F 21.2 °F 69% 29.74 in 10.0 mi SSW 5.8 mph - N/A   Scattered Clouds
6:35 AM 30.2 °F - 21.2 °F 69% 29.73 in 10.0 mi Calm Calm - N/A   Mostly Cloudy
6:55 AM 30.2 °F - 23.0 °F 75% 29.72 in 10.0 mi Calm Calm - N/A   Partly Cloudy
7:15 AM 30.2 °F 25.4 °F 23.0 °F 75% 29.71 in 10.0 mi East 4.6 mph - N/A   Clear
7:35 AM 30.2 °F 26.7 °F 23.0 °F 75% 29.68 in 10.0 mi SE 3.5 mph - N/A   Mostly Cloudy
7:55 AM 30.2 °F - 24.8 °F 80% 29.66 in 10.0 mi Calm Calm - N/A   Scattered Clouds
8:15 AM 32.0 °F 26.4 °F 24.8 °F 75% 29.65 in 10.0 mi NW 5.8 mph - N/A   Mostly Cloudy
8:35 AM 33.8 °F 27.7 °F 24.8 °F 70% 29.70 in 10.0 mi NNW 6.9 mph 16.1 mph N/A   Overcast
8:55 AM 35.6 °F 29.9 °F 26.6 °F 70% 29.71 in 10.0 mi South 6.9 mph - N/A   Mostly Cloudy
9:15 AM 35.6 °F 30.7 °F 28.4 °F 75% 29.69 in 10.0 mi East 5.8 mph - N/A   Mostly Cloudy
9:35 AM 35.6 °F 29.9 °F 28.4 °F 75% 29.69 in 8.0 mi SSE 6.9 mph - N/A   Mostly Cloudy
9:55 AM 35.6 °F 28.0 °F 28.4 °F 75% 29.70 in 8.0 mi South 10.4 mph - N/A   Overcast
10:15 AM 37.4 °F 29.3 °F 28.4 °F 70% 29.73 in 10.0 mi NNW 12.7 mph 18.4 mph N/A   Mostly Cloudy
10:35 AM 42.8 °F - 35.6 °F 76% 29.72 in 10.0 mi Calm Calm - N/A   Mostly Cloudy
10:55 AM 42.8 °F 40.1 °F 35.6 °F 76% 29.70 in 10.0 mi SE 4.6 mph - N/A   Partly Cloudy
11:15 AM 42.8 °F - 35.6 °F 76% 29.69 in 9.0 mi Calm Calm - N/A   Partly Cloudy
11:35 AM 42.8 °F - 35.6 °F 76% 29.69 in 10.0 mi Calm Calm - N/A   Scattered Clouds
11:55 AM 42.8 °F - 35.6 °F 76% 29.69 in 10.0 mi Calm Calm - N/A   Mostly Cloudy
12:15 PM 46.4 °F 40.1 °F 39.2 °F 76% 29.69 in 10.0 mi WNW 15.0 mph 23.0 mph N/A   Mostly Cloudy
12:35 PM 50.0 °F - 39.2 °F 66% 29.69 in 10.0 mi NW 15.0 mph 25.3 mph N/A   Clear
12:55 PM 51.8 °F - 37.4 °F 58% 29.70 in 10.0 mi NW 15.0 mph 24.2 mph N/A   Clear
1:15 PM 53.6 °F - 37.4 °F 54% 29.69 in 10.0 mi WNW 16.1 mph 28.8 mph N/A   Partly Cloudy
1:35 PM 55.4 °F - 37.4 °F 51% 29.70 in 10.0 mi WNW 18.4 mph 28.8 mph N/A   Partly Cloudy
1:55 PM 55.4 °F - 35.6 °F 47% 29.71 in 10.0 mi NW 16.1 mph 36.8 mph N/A   Scattered Clouds
2:15 PM 55.4 °F - 35.6 °F 47% 29.73 in 10.0 mi NW 24.2 mph 32.2 mph N/A   Mostly Cloudy
2:35 PM 53.6 °F - 33.8 °F 47% 29.75 in 10.0 mi NW 24.2 mph 36.8 mph N/A   Partly Cloudy
2:55 PM 51.8 °F - 32.0 °F 47% 29.78 in 10.0 mi NNW 18.4 mph 32.2 mph N/A   Clear
3:15 PM 50.0 °F - 30.2 °F 47% 29.79 in 10.0 mi WNW 19.6 mph 28.8 mph N/A   Clear
3:35 PM 48.2 °F - 30.2 °F 50% 29.81 in 10.0 mi NNW 20.7 mph 29.9 mph N/A   Clear
3:55 PM 46.4 °F 38.7 °F 30.2 °F 53% 29.83 in 10.0 mi NNW 20.7 mph 25.3 mph N/A   Partly Cloudy
4:15 PM 46.4 °F 39.5 °F 28.4 °F 50% 29.85 in 10.0 mi NNW 17.3 mph 24.2 mph N/A   Mostly Cloudy
4:35 PM 44.6 °F 37.4 °F 28.4 °F 53% 29.88 in 10.0 mi North 16.1 mph 25.3 mph N/A   Overcast
4:55 PM 41.0 °F 33.5 °F 26.6 °F 57% 29.90 in 10.0 mi NW 13.8 mph 25.3 mph N/A   Overcast
5:15 PM 39.2 °F 30.2 °F 24.8 °F 56% 29.92 in 10.0 mi NW 17.3 mph 29.9 mph N/A   Overcast
5:35 PM 39.2 °F 30.5 °F 24.8 °F 56% 29.93 in 10.0 mi NW 16.1 mph 26.5 mph N/A   Overcast
5:55 PM 37.4 °F 29.8 °F 24.8 °F 60% 29.94 in 10.0 mi NW 11.5 mph 20.7 mph N/A   Overcast
6:15 PM 37.4 °F 27.8 °F 23.0 °F 56% 29.95 in 10.0 mi NW 17.3 mph 24.2 mph N/A   Overcast
6:35 PM 37.4 °F 30.8 °F 23.0 °F 56% 29.96 in 10.0 mi NW 9.2 mph 19.6 mph N/A   Overcast
6:55 PM 37.4 °F 28.9 °F 23.0 °F 56% 29.98 in 10.0 mi WNW 13.8 mph 20.7 mph N/A   Overcast
7:15 PM 37.4 °F 29.8 °F 23.0 °F 56% 30.00 in 10.0 mi North 11.5 mph 18.4 mph N/A   Overcast
7:35 PM 35.6 °F 28.0 °F 21.2 °F 56% 30.01 in 10.0 mi North 10.4 mph 16.1 mph N/A   Overcast
7:55 PM 33.8 °F 27.0 °F 21.2 °F 60% 30.02 in 10.0 mi NNW 8.1 mph - N/A   Mostly Cloudy
8:15 PM 33.8 °F 25.8 °F 21.2 °F 60% 30.03 in 10.0 mi NNW 10.4 mph - N/A   Mostly Cloudy
8:35 PM 33.8 °F 24.3 °F 21.2 °F 60% 30.05 in 10.0 mi NNW 13.8 mph - N/A   Overcast
8:55 PM 33.8 °F 24.8 °F 21.2 °F 60% 30.05 in 10.0 mi NNW 12.7 mph 17.3 mph N/A   Overcast
9:15 PM 33.8 °F 26.4 °F 19.4 °F 56% 30.05 in 10.0 mi NNW 9.2 mph 17.3 mph N/A   Overcast
9:35 PM 32.0 °F 23.6 °F 19.4 °F 60% 30.06 in 10.0 mi NNW 10.4 mph - N/A   Overcast
9:55 PM 32.0 °F 25.6 °F 21.2 °F 64% 30.07 in 10.0 mi NNW 6.9 mph - N/A   Overcast
10:15 PM 32.0 °F 25.6 °F 21.2 °F 64% 30.07 in 10.0 mi NW 6.9 mph - N/A   Overcast
10:35 PM 32.0 °F 25.6 °F 19.4 °F 60% 30.07 in 10.0 mi NNW 6.9 mph - N/A   Overcast
10:55 PM 30.2 °F 23.4 °F 19.4 °F 64% 30.10 in 10.0 mi NNW 6.9 mph - N/A   Overcast
11:15 PM 30.2 °F 22.6 °F 19.4 °F 64% 30.10 in 10.0 mi NNW 8.1 mph - N/A   Overcast
11:35 PM 30.2 °F 23.4 °F 19.4 °F 64% 30.10 in 10.0 mi NNW 6.9 mph - N/A   Overcast
11:55 PM 30.2 °F 21.9 °F 17.6 °F 60% 30.10 in 10.0 mi NW 9.2 mph - N/A   Overcast